Location: Mount Cross
(36.6390°N, 79.4878°W)
Time: 00:15:16
(UTC+00:00)

SR - Pass Details

Date: 06 April 2023
Orbit: 580 x 867 km, 66.7° (Epoch: 08 June)

Event Time Altitude Azimuth Distance (km) Brightness Sun altitude
Rises 15:02:32 0° 308° (NW) 2,876 ? 46.5°
Reaches altitude 10° 15:05:52 10° 281° (W) 2,014 ? 47.0°
Maximum altitude 15:07:58 13° 253° (WSW) 1,844 ? 47.3°
Drops below altitude 10° 15:10:07 10° 225° (SW) 2,082 ? 47.7°
Sets 15:13:42 0° 199° (SSW) 3,061 ? 48.3°
